Palma de Mallorca, Spain

5:22 AM CEST on June 27, 2017 (GMT +0200)
Palma De Mallorca

Weather History for LEPA - April, 2012

Change the Weather History Date:

Friday, April 20, 2012

  Actual Average Record
Temperature  
Mean Temperature 62 °F -  
Max Temperature 68 °F 71 °F 75 °F (2016)
Min Temperature 55 °F 51 °F 41 °F (2004)
Degree Days  
Heating Degree Days 4    
Growing Degree Days 12 (Base 50)    
Moisture  
Dew Point 48 °F    
Average Humidity 63    
Maximum Humidity 82    
Minimum Humidity 37    
Precipitation  
Precipitation 0.00 in 0.04 in - ()
Sea Level Pressure  
Sea Level Pressure 29.74 in    
Wind  
Wind Speed 7 mph ()    
Max Wind Speed 21 mph    
Max Gust Speed -    
Visibility 6.9 miles    
Events      
Averages and records for this station are not official NWS values.
T = Trace of Precipitation, MM = Missing Value Source: Averaged Metar Reports

Daily Weather History Graph

Daily Weather History Graph

Search for Another Location

Airport or City:

Trip Planner

Search our weather history database for the weather conditions in past years. The results will help you decide how hot, cold, wet, or windy it might be!

Date:

Astronomy

Apr. 20, 2012 Rise Set
Actual Time 7:04 AM CEST 8:32 PM CEST
Civil Twilight 6:36 AM CEST 9:00 PM CEST
Nautical Twilight 6:02 AM CEST 9:34 PM CEST
Astronomical Twilight 5:26 AM CEST 10:10 PM CEST
Moon 6:19 AM CEST (4/20) 8:02 PM CEST (4/20)
Length of Visible Light 14h 24m
Length of Day
13h 28m
Waning Crescent, 1% of the Moon is Illuminated
Apr 20
Waning Crescent
Apr 21
New
Apr 29
First Quarter
May 6
Full
May 12
Last Quarter

Hourly Weather History & Observations

Time (CEST) Temp. Dew Point Humidity Pressure Visibility Wind Dir Wind Speed Gust Speed Precip Events Conditions
12:00 AM 60.8 °F 44.6 °F 55% 29.62 in 6.2 mi Variable 2.3 mph - N/A   Partly Cloudy
12:30 AM 59.0 °F 42.8 °F 55% 29.65 in 6.2 mi West 4.6 mph - N/A   Partly Cloudy
1:00 AM 60.8 °F 42.8 °F 52% 29.65 in 6.2 mi WNW 3.5 mph - N/A   Partly Cloudy
1:30 AM 60.8 °F 42.8 °F 52% 29.65 in 6.2 mi NW 5.8 mph - N/A   Partly Cloudy
2:00 AM 58 °F 42 °F 45% 29.66 in 9 mi NW 4.6 mph - -   Scattered Clouds
2:00 AM 59.0 °F 42.8 °F 55% 29.65 in 6.2 mi NW 5.8 mph - N/A   Partly Cloudy
2:30 AM 59.0 °F 42.8 °F 55% 29.65 in 6.2 mi NW 5.8 mph - N/A   Partly Cloudy
3:00 AM 59.0 °F 42.8 °F 55% 29.65 in 6.2 mi NW 3.5 mph - N/A   Partly Cloudy
3:30 AM 57.2 °F 44.6 °F 63% 29.65 in 6.2 mi Variable 2.3 mph - N/A   Partly Cloudy
4:00 AM 57.2 °F 44.6 °F 63% 29.65 in 6.2 mi NW 8.1 mph - N/A   Partly Cloudy
4:30 AM 59.0 °F 46.4 °F 63% 29.65 in 6.2 mi NW 10.4 mph - N/A   Partly Cloudy
5:00 AM 57.2 °F 48.2 °F 72% 29.65 in 6.2 mi NW 6.9 mph - N/A   Partly Cloudy
5:30 AM 57.2 °F 46.4 °F 67% 29.65 in 6.2 mi Calm Calm - N/A   Partly Cloudy
6:00 AM 55.4 °F 46.4 °F 72% 29.65 in 6.2 mi Variable 2.3 mph - N/A   Partly Cloudy
6:30 AM 57.2 °F 44.6 °F 63% 29.68 in 6.2 mi West 3.5 mph - N/A   Partly Cloudy
7:00 AM 57.2 °F 44.6 °F 63% 29.68 in 6.2 mi NW 9.2 mph - N/A   Partly Cloudy
7:30 AM 55.4 °F 46.4 °F 72% 29.68 in 6.2 mi WNW 4.6 mph - N/A   Partly Cloudy
8:00 AM 56 °F 47 °F 64% 29.70 in 12 mi NNW 3.5 mph - -   Scattered Clouds
8:00 AM 55.4 °F 48.2 °F 77% 29.68 in 6.2 mi Variable 2.3 mph - N/A   Partly Cloudy
8:30 AM 57.2 °F 48.2 °F 72% 29.71 in 6.2 mi Variable 2.3 mph - N/A   Partly Cloudy
9:00 AM 59.0 °F 46.4 °F 63% 29.71 in 6.2 mi Calm Calm - N/A   Partly Cloudy
9:30 AM 60.8 °F 46.4 °F 59% 29.74 in 6.2 mi Variable 2.3 mph - N/A   Partly Cloudy
10:00 AM 60.8 °F 46.4 °F 59% 29.74 in 6.2 mi WNW 6.9 mph - N/A   Partly Cloudy
10:30 AM 62.6 °F 44.6 °F 52% 29.74 in 6.2 mi NW 9.2 mph - N/A   Partly Cloudy
11:00 AM 62.6 °F 44.6 °F 52% 29.77 in 6.2 mi NNW 12.7 mph - N/A   Partly Cloudy
11:30 AM 64.4 °F 44.6 °F 49% 29.77 in 6.2 mi NW 10.4 mph - N/A   Partly Cloudy
12:00 PM 64.4 °F 42.8 °F 45% 29.77 in 6.2 mi NNW 11.5 mph - N/A   Partly Cloudy
12:30 PM 66.2 °F 39.2 °F 37% 29.77 in 6.2 mi NW 4.6 mph - N/A   Partly Cloudy
1:00 PM 64.4 °F 46.4 °F 52% 29.80 in 6.2 mi SW 16.1 mph - N/A   Partly Cloudy
1:30 PM 66.2 °F 48.2 °F 52% 29.77 in 6.2 mi SW 13.8 mph - N/A   Partly Cloudy
2:00 PM 65 °F 51 °F 49% 29.79 in 19 mi SW 18.4 mph - -   Scattered Clouds
2:00 PM 66.2 °F 50.0 °F 56% 29.77 in 6.2 mi SW 17.3 mph - N/A   Partly Cloudy
2:30 PM 64.4 °F 50.0 °F 59% 29.80 in 6.2 mi SSW 19.6 mph - N/A   Partly Cloudy
3:00 PM 64.4 °F 51.8 °F 64% 29.80 in 6.2 mi SW 20.7 mph - N/A   Partly Cloudy
3:30 PM 64.4 °F 50.0 °F 59% 29.80 in 6.2 mi SSW 19.6 mph - N/A   Partly Cloudy
4:00 PM 66.2 °F 50.0 °F 56% 29.77 in 6.2 mi SSW 18.4 mph - N/A   Partly Cloudy
4:30 PM 66.2 °F 51.8 °F 60% 29.77 in 6.2 mi SSW 17.3 mph - N/A   Partly Cloudy
5:00 PM 64.4 °F 51.8 °F 64% 29.80 in 6.2 mi SSW 17.3 mph - N/A   Partly Cloudy
5:30 PM 64.4 °F 53.6 °F 68% 29.80 in 6.2 mi SSW 17.3 mph - N/A   Partly Cloudy
6:00 PM 64.4 °F 53.6 °F 68% 29.80 in 6.2 mi SSW 12.7 mph - N/A   Partly Cloudy
6:30 PM 64.4 °F 55.4 °F 73% 29.80 in 6.2 mi South 13.8 mph - N/A   Partly Cloudy
7:00 PM 62.6 °F 53.6 °F 72% 29.80 in 6.2 mi SSW 11.5 mph - N/A   Partly Cloudy
7:30 PM 62.6 °F 51.8 °F 68% 29.80 in 6.2 mi SSW 11.5 mph - N/A   Partly Cloudy
8:00 PM 62 °F 54 °F 68% 29.83 in 19 mi SSW 6.9 mph - -   Scattered Clouds
8:00 PM 62.6 °F 53.6 °F 72% 29.83 in 6.2 mi SW 9.2 mph - N/A   Partly Cloudy
8:30 PM 60.8 °F 55.4 °F 82% 29.83 in 6.2 mi SW 9.2 mph - N/A   Partly Cloudy
9:00 PM 60.8 °F 53.6 °F 77% 29.83 in 6.2 mi SW 4.6 mph - N/A   Partly Cloudy
9:30 PM 60.8 °F 53.6 °F 77% 29.83 in 6.2 mi SW 6.9 mph - N/A   Partly Cloudy
10:00 PM 60.8 °F 55.4 °F 82% 29.86 in 6.2 mi SW 5.8 mph - N/A   Partly Cloudy
10:30 PM 60.8 °F 55.4 °F 82% 29.86 in 6.2 mi WSW 8.1 mph - N/A   Partly Cloudy
11:00 PM 60.8 °F 55.4 °F 82% 29.86 in 6.2 mi WSW 9.2 mph - N/A   Partly Cloudy
11:30 PM 60.8 °F 55.4 °F 82% 29.86 in 6.2 mi SW 8.1 mph - N/A   Partly Cloudy